Mega Smeralda — ICIU — position and weather

sailwx.info

Track history (hours):
 
Tides and Currents Weather Stations Pressure Air Temp Water Temp Dewpoint Dewpoint Depression Visibility Wind Speed Wind Dir Waves Ship Positions

Mega Smeralda

Last reported at 2014-Nov-27 23:07 UTC. Time now 2014-Nov-28 08:36 UTC.
Position N 42°41' E 006°40'.

Length 171 m; draft 6.4 m.

Type: Passenger vessel. MMSI: 247228600.

Date/timePositionNaut miles runAvg speedWind from/ knotsBaromVisibWave heightAir tempDewpointWater temp
2014-Nov-27 23:07N 42°41' E 006°40'915.7
2014-Nov-27 22:34N 42°46' E 006°30'1615.6
2014-Nov-27 21:33N 42°54' E 006°12'1514.7
2014-Nov-27 20:33N 43°05' E 005°58'3 2.6
2014-Nov-27 19:32N 43°07' E 005°56'0 0.0
2014-Nov-27 18:32N 43°07' E 005°56'0 0.0
2014-Nov-27 17:32N 43°07' E 005°56'0 0.0
2014-Nov-27 16:32N 43°07' E 005°56'0 0.0
2014-Nov-27 15:32N 43°07' E 005°56'0 0.0
2014-Nov-27 14:32N 43°07' E 005°56'0 0.0
2014-Nov-27 13:32N 43°07' E 005°56'0 0.0
2014-Nov-27 12:32N 43°07' E 005°56'0 0.0
2014-Nov-27 11:32N 43°07' E 005°56'0 0.0
2014-Nov-27 10:32N 43°07' E 005°56'0 0.0
2014-Nov-27 09:32N 43°07' E 005°56'0 0.0
2014-Nov-27 08:32N 43°07' E 005°56'0 0.0
2014-Nov-27 07:32N 43°07' E 005°56'0 0.0
2014-Nov-27 06:32N 43°07' E 005°56'4 4.3
2014-Nov-27 05:33N 43°03' E 005°59'1312.5
2014-Nov-27 04:33N 42°55' E 006°11'1313.1
2014-Nov-27 03:33N 42°48' E 006°26'21 0.8
2014-Nov-25 23:31N 42°36' E 006°51'1515.7
2014-Nov-25 22:33N 42°44' E 006°34'1615.5
2014-Nov-25 21:32N 42°53' E 006°15'1515.0
2014-Nov-25 20:33N 43°02' E 006°00'6 5.4
2014-Nov-25 19:32N 43°07' E 005°56'0 0.0
2014-Nov-25 18:32N 43°07' E 005°56'0 0.0
2014-Nov-25 17:32N 43°07' E 005°56'2 1.8
2014-Nov-25 16:34N 43°06' E 005°54'0 0.0
2014-Nov-25 15:34N 43°06' E 005°54'0 0.0
2014-Nov-25 14:33N 43°06' E 005°54'0 0.0
2014-Nov-25 13:34N 43°06' E 005°54'0 0.0
2014-Nov-25 12:33N 43°06' E 005°54'0 0.0
2014-Nov-25 11:34N 43°06' E 005°54'0 0.0
2014-Nov-25 10:33N 43°06' E 005°54'0 0.0
2014-Nov-25 09:33N 43°06' E 005°54'0 0.0
2014-Nov-25 08:33N 43°06' E 005°54'0 0.0
2014-Nov-25 07:33N 43°06' E 005°54'2 1.7
2014-Nov-25 06:33N 43°07' E 005°56'4 4.0
2014-Nov-25 05:33N 43°03' E 005°59'1312.6
2014-Nov-25 04:33N 42°55' E 006°11'1313.1
2014-Nov-25 03:34N 42°48' E 006°26'13 0.5
2014-Nov-23 23:33N 42°39' E 006°39'1413.9
2014-Nov-23 22:33N 42°46' E 006°23'1413.6
2014-Nov-23 21:33N 42°54' E 006°08'1312.6
2014-Nov-23 20:33N 43°04' E 005°58'3 3.2
2014-Nov-23 19:33N 43°07' E 005°56'0 0.0
2014-Nov-23 18:33N 43°07' E 005°56'0 0.0
2014-Nov-23 17:33N 43°07' E 005°56'0 0.0
2014-Nov-23 16:33N 43°07' E 005°56'0 0.0
2014-Nov-23 15:33N 43°07' E 005°56'0 0.0
2014-Nov-23 14:33N 43°07' E 005°56'0 0.0
2014-Nov-23 13:33N 43°07' E 005°56'0 0.0
2014-Nov-23 12:33N 43°07' E 005°56'0 0.0
2014-Nov-23 11:33N 43°07' E 005°56'0 0.0
2014-Nov-23 10:33N 43°07' E 005°56'0 0.0
2014-Nov-23 09:33N 43°07' E 005°56'0 0.1
2014-Nov-23 08:33N 43°07' E 005°56'0 0.0
2014-Nov-23 07:33N 43°07' E 005°56'5 5.2
2014-Nov-23 06:33N 43°03' E 005°60'1414.0
2014-Nov-23 05:33N 42°54' E 006°14'1515.2
2014-Nov-23 04:33N 42°45' E 006°32'1 0.0
2014-Nov-21 22:33N 42°45' E 006°30'1514.9
2014-Nov-21 21:33N 42°53' E 006°13'1413.8
2014-Nov-21 20:34N 43°02' E 005°59'5 5.3
2014-Nov-21 19:33N 43°07' E 005°56'0 0.0
2014-Nov-21 18:33N 43°07' E 005°56'0 0.0
2014-Nov-21 17:33N 43°07' E 005°56'0 0.0
2014-Nov-21 16:33N 43°07' E 005°56'0 0.0
2014-Nov-21 15:33N 43°07' E 005°56'0 0.0
2014-Nov-21 14:33N 43°07' E 005°56'0 0.0
2014-Nov-21 13:33N 43°07' E 005°56'0 0.0
2014-Nov-21 12:33N 43°07' E 005°56'0 0.0
2014-Nov-21 11:33N 43°07' E 005°56'0 0.0
2014-Nov-21 10:33N 43°07' E 005°56'0 0.1
2014-Nov-21 09:31N 43°07' E 005°56'0 0.0
2014-Nov-21 08:33N 43°07' E 005°56'0 0.0
2014-Nov-21 07:34N 43°07' E 005°56'0 0.0
2014-Nov-21 06:33N 43°07' E 005°56'5 4.6
2014-Nov-21 05:34N 43°03' E 005°59'1211.6
2014-Nov-21 04:34N 42°55' E 006°11'1212.3
2014-Nov-21 03:34N 42°48' E 006°25'7 0.2
2014-Nov-19 22:33N 42°45' E 006°33'1515.0
2014-Nov-19 21:33N 42°53' E 006°15'1515.1
2014-Nov-19 20:33N 43°03' E 005°60'5 4.8
2014-Nov-19 19:33N 43°07' E 005°56'0 0.0
2014-Nov-19 18:33N 43°07' E 005°56'0 0.0
2014-Nov-19 17:33N 43°07' E 005°56'0 0.0
2014-Nov-19 16:33N 43°07' E 005°56'0 0.0
2014-Nov-19 15:33N 43°07' E 005°56'0 0.0
2014-Nov-19 14:33N 43°07' E 005°56'0 0.0
2014-Nov-19 13:33N 43°07' E 005°56'0 0.0
2014-Nov-19 12:33N 43°07' E 005°56'0 0.0
2014-Nov-19 11:33N 43°07' E 005°56'0 0.0
2014-Nov-19 10:33N 43°07' E 005°56'0 0.0
2014-Nov-19 09:33N 43°07' E 005°56'0 0.0
2014-Nov-19 08:33N 43°07' E 005°56'0 0.0
2014-Nov-19 07:33N 43°07' E 005°56'0 0.0
2014-Nov-19 06:33N 43°07' E 005°56'5 4.7
2014-Nov-19 05:33N 43°03' E 005°60'1413.6
2014-Nov-19 04:34N 42°53' E 006°13'1414.3
2014-Nov-19 03:34N 42°46' E 006°29'  
Track history (hours):
 
Tides and Currents Weather Stations Pressure Air Temp Water Temp Dewpoint Dewpoint Depression Visibility Wind Speed Wind Dir Waves Ship Positions

Mega Smeralda

Last reported at 2014-Nov-27 23:07 UTC. Time now 2014-Nov-28 08:36 UTC.
Position N 42°41' E 006°40'.

Length 171 m; draft 6.4 m.

Type: Passenger vessel. MMSI: 247228600.

Date/timePositionNaut miles runAvg speedWind from/ knotsBaromVisibWave heightAir tempDewpointWater temp
2014-Nov-27 23:07N 42°41' E 006°40'915.7
2014-Nov-27 22:34N 42°46' E 006°30'1615.6
2014-Nov-27 21:33N 42°54' E 006°12'1514.7
2014-Nov-27 20:33N 43°05' E 005°58'3 2.6
2014-Nov-27 19:32N 43°07' E 005°56'0 0.0
2014-Nov-27 18:32N 43°07' E 005°56'0 0.0
2014-Nov-27 17:32N 43°07' E 005°56'0 0.0
2014-Nov-27 16:32N 43°07' E 005°56'0 0.0
2014-Nov-27 15:32N 43°07' E 005°56'0 0.0
2014-Nov-27 14:32N 43°07' E 005°56'0 0.0
2014-Nov-27 13:32N 43°07' E 005°56'0 0.0
2014-Nov-27 12:32N 43°07' E 005°56'0 0.0
2014-Nov-27 11:32N 43°07' E 005°56'0 0.0
2014-Nov-27 10:32N 43°07' E 005°56'0 0.0
2014-Nov-27 09:32N 43°07' E 005°56'0 0.0
2014-Nov-27 08:32N 43°07' E 005°56'0 0.0
2014-Nov-27 07:32N 43°07' E 005°56'0 0.0
2014-Nov-27 06:32N 43°07' E 005°56'4 4.3
2014-Nov-27 05:33N 43°03' E 005°59'1312.5
2014-Nov-27 04:33N 42°55' E 006°11'1313.1
2014-Nov-27 03:33N 42°48' E 006°26'21 0.8
2014-Nov-25 23:31N 42°36' E 006°51'1515.7
2014-Nov-25 22:33N 42°44' E 006°34'1615.5
2014-Nov-25 21:32N 42°53' E 006°15'1515.0
2014-Nov-25 20:33N 43°02' E 006°00'6 5.4
2014-Nov-25 19:32N 43°07' E 005°56'0 0.0
2014-Nov-25 18:32N 43°07' E 005°56'0 0.0
2014-Nov-25 17:32N 43°07' E 005°56'2 1.8
2014-Nov-25 16:34N 43°06' E 005°54'0 0.0
2014-Nov-25 15:34N 43°06' E 005°54'0 0.0
2014-Nov-25 14:33N 43°06' E 005°54'0 0.0
2014-Nov-25 13:34N 43°06' E 005°54'0 0.0
2014-Nov-25 12:33N 43°06' E 005°54'0 0.0
2014-Nov-25 11:34N 43°06' E 005°54'0 0.0
2014-Nov-25 10:33N 43°06' E 005°54'0 0.0
2014-Nov-25 09:33N 43°06' E 005°54'0 0.0
2014-Nov-25 08:33N 43°06' E 005°54'0 0.0
2014-Nov-25 07:33N 43°06' E 005°54'2 1.7
2014-Nov-25 06:33N 43°07' E 005°56'4 4.0
2014-Nov-25 05:33N 43°03' E 005°59'1312.6
2014-Nov-25 04:33N 42°55' E 006°11'1313.1
2014-Nov-25 03:34N 42°48' E 006°26'13 0.5
2014-Nov-23 23:33N 42°39' E 006°39'1413.9
2014-Nov-23 22:33N 42°46' E 006°23'1413.6
2014-Nov-23 21:33N 42°54' E 006°08'1312.6
2014-Nov-23 20:33N 43°04' E 005°58'3 3.2
2014-Nov-23 19:33N 43°07' E 005°56'0 0.0
2014-Nov-23 18:33N 43°07' E 005°56'0 0.0
2014-Nov-23 17:33N 43°07' E 005°56'0 0.0
2014-Nov-23 16:33N 43°07' E 005°56'0 0.0
2014-Nov-23 15:33N 43°07' E 005°56'0 0.0
2014-Nov-23 14:33N 43°07' E 005°56'0 0.0
2014-Nov-23 13:33N 43°07' E 005°56'0 0.0
2014-Nov-23 12:33N 43°07' E 005°56'0 0.0
2014-Nov-23 11:33N 43°07' E 005°56'0 0.0
2014-Nov-23 10:33N 43°07' E 005°56'0 0.0
2014-Nov-23 09:33N 43°07' E 005°56'0 0.1
2014-Nov-23 08:33N 43°07' E 005°56'0 0.0
2014-Nov-23 07:33N 43°07' E 005°56'5 5.2
2014-Nov-23 06:33N 43°03' E 005°60'1414.0
2014-Nov-23 05:33N 42°54' E 006°14'1515.2
2014-Nov-23 04:33N 42°45' E 006°32'1 0.0
2014-Nov-21 22:33N 42°45' E 006°30'1514.9
2014-Nov-21 21:33N 42°53' E 006°13'1413.8
2014-Nov-21 20:34N 43°02' E 005°59'5 5.3
2014-Nov-21 19:33N 43°07' E 005°56'0 0.0
2014-Nov-21 18:33N 43°07' E 005°56'0 0.0
2014-Nov-21 17:33N 43°07' E 005°56'0 0.0
2014-Nov-21 16:33N 43°07' E 005°56'0 0.0
2014-Nov-21 15:33N 43°07' E 005°56'0 0.0
2014-Nov-21 14:33N 43°07' E 005°56'0 0.0
2014-Nov-21 13:33N 43°07' E 005°56'0 0.0
2014-Nov-21 12:33N 43°07' E 005°56'0 0.0
2014-Nov-21 11:33N 43°07' E 005°56'0 0.0
2014-Nov-21 10:33N 43°07' E 005°56'0 0.1
2014-Nov-21 09:31N 43°07' E 005°56'0 0.0
2014-Nov-21 08:33N 43°07' E 005°56'0 0.0
2014-Nov-21 07:34N 43°07' E 005°56'0 0.0
2014-Nov-21 06:33N 43°07' E 005°56'5 4.6
2014-Nov-21 05:34N 43°03' E 005°59'1211.6
2014-Nov-21 04:34N 42°55' E 006°11'1212.3
2014-Nov-21 03:34N 42°48' E 006°25'7 0.2
2014-Nov-19 22:33N 42°45' E 006°33'1515.0
2014-Nov-19 21:33N 42°53' E 006°15'1515.1
2014-Nov-19 20:33N 43°03' E 005°60'5 4.8
2014-Nov-19 19:33N 43°07' E 005°56'0 0.0
2014-Nov-19 18:33N 43°07' E 005°56'0 0.0
2014-Nov-19 17:33N 43°07' E 005°56'0 0.0
2014-Nov-19 16:33N 43°07' E 005°56'0 0.0
2014-Nov-19 15:33N 43°07' E 005°56'0 0.0
2014-Nov-19 14:33N 43°07' E 005°56'0 0.0
2014-Nov-19 13:33N 43°07' E 005°56'0 0.0
2014-Nov-19 12:33N 43°07' E 005°56'0 0.0
2014-Nov-19 11:33N 43°07' E 005°56'0 0.0
2014-Nov-19 10:33N 43°07' E 005°56'0 0.0
2014-Nov-19 09:33N 43°07' E 005°56'0 0.0
2014-Nov-19 08:33N 43°07' E 005°56'0 0.0
2014-Nov-19 07:33N 43°07' E 005°56'0 0.0
2014-Nov-19 06:33N 43°07' E 005°56'5 4.7
2014-Nov-19 05:33N 43°03' E 005°60'1413.6
2014-Nov-19 04:34N 42°53' E 006°13'1414.3
2014-Nov-19 03:34N 42°46' E 006°29'  

Dump ship's entire track history